Location: Unspecified
(0.0000°N, 0.0000°E)
Time: 06:30:46
(UTC+00:00)

Vanguard 2 - Pass Details

Date: 25 November 2019
Orbit: 553 x 2938 km, 32.9° (Epoch: 10 December)

Event Time Altitude Azimuth Distance (km) Brightness Sun altitude
Rises 16:47:28 0° 255° (WSW) 2,790 12.3 13.9°
Reaches altitude 10° 16:51:48 10° 211° (SSW) 2,137 10.8 12.9°
Maximum altitude 16:52:37 10° 201° (SSW) 2,173 10.6 12.7°
Drops below altitude 10° 16:53:29 10° 191° (SSW) 2,268 10.5 12.5°
Sets 16:59:12 0° 152° (SSE) 3,756 11.0 11.2°
